Terug naar catalogus

GNOMES-5

ActiefWeerSSO
NORAD 60574·PAYLOAD·🇺🇸 United States

Gelanceerd Aug 16, 2024 vanaf Vandenberg Space Force Base

Loading…

Volgende Passages (komende 24 uur)

TLE

VersSource: Space-Track

Epoch: Sep 14, 2026, 12:44 UTC

1 60574U 24149DL  26257.53108337  .00002159  00000-0  17046-3 0  9992
2 60574  97.7073 335.0258 0007538 190.2041 169.9032 15.01751582113564

Volg GNOMES-5 in realtime met AllMySat

Download on the App Store